Time,TemperatureF,DewpointF,PressureIn,WindDirection,WindDirectionDegrees,WindSpeedMPH,WindSpeedGustMPH,Humidity,HourlyPrecipIn,Conditions,Clouds,dailyrainin,SoftwareType,DateUTC
2013-03-10 00:01:00,64.0,39.0,29.96,SE,139,0.0,5.0,40,0.00,,,0.00,,2013-03-10 06:01:00,
2013-03-10 00:11:00,64.0,39.0,29.96,SE,139,0.0,5.0,40,0.00,,,0.00,,2013-03-10 06:11:00,
2013-03-10 00:22:00,64.0,39.0,29.96,ENE,72,1.0,9.0,40,0.00,,,0.00,,2013-03-10 06:22:00,
2013-03-10 00:32:00,63.0,40.0,29.97,SSW,211,2.0,6.0,42,0.00,,,0.00,,2013-03-10 06:32:00,
2013-03-10 00:42:00,63.0,40.0,29.97,SSW,211,2.0,6.0,42,0.00,,,0.00,,2013-03-10 06:42:00,
2013-03-10 00:52:00,63.0,40.0,29.98,South,178,2.0,7.0,43,0.00,,,0.00,,2013-03-10 06:52:00,
2013-03-10 01:01:00,63.0,41.0,29.98,West,280,1.0,4.0,44,0.00,,,0.00,,2013-03-10 07:01:00,
2013-03-10 01:11:00,63.0,41.0,29.98,West,280,1.0,4.0,44,0.00,,,0.00,,2013-03-10 07:11:00,
2013-03-10 01:21:00,63.0,41.0,29.99,SW,221,0.0,3.0,45,0.00,,,0.00,,2013-03-10 07:21:00,
2013-03-10 01:31:00,63.0,42.0,29.98,WNW,294,1.0,4.0,46,0.00,,,0.00,,2013-03-10 07:31:00,
2013-03-10 01:42:00,62.0,41.0,29.98,SE,136,0.0,2.0,46,0.00,,,0.00,,2013-03-10 07:42:00,
2013-03-10 01:52:00,62.0,41.0,29.98,SE,136,0.0,2.0,46,0.00,,,0.00,,2013-03-10 07:52:00,
2013-03-10 03:01:00,62.0,42.0,29.98,ENE,72,1.0,4.0,48,0.00,,,0.00,,2013-03-10 08:01:00,
2013-03-10 03:11:00,62.0,42.0,29.98,ENE,72,1.0,4.0,48,0.00,,,0.00,,2013-03-10 08:11:00,
2013-03-10 03:21:00,61.0,42.0,29.97,ENE,58,2.0,6.0,50,0.00,,,0.00,,2013-03-10 08:21:00,
2013-03-10 03:31:00,61.0,43.0,29.96,ENE,63,2.0,5.0,51,0.00,,,0.00,,2013-03-10 08:31:00,
2013-03-10 03:42:00,61.0,43.0,29.96,ENE,63,2.0,5.0,51,0.00,,,0.00,,2013-03-10 08:42:00,
2013-03-10 03:52:00,61.0,44.0,29.95,SSE,153,2.0,6.0,53,0.00,,,0.00,,2013-03-10 08:52:00,
2013-03-10 04:01:00,61.0,44.0,29.94,West,263,2.0,5.0,54,0.00,,,0.00,,2013-03-10 09:01:00,
2013-03-10 04:11:00,61.0,44.0,29.94,West,263,2.0,5.0,54,0.00,,,0.00,,2013-03-10 09:11:00,
2013-03-10 04:21:00,61.0,45.0,29.94,ENE,61,1.0,5.0,55,0.00,,,0.00,,2013-03-10 09:21:00,
2013-03-10 04:31:00,61.0,45.0,29.93,NE,54,1.0,4.0,56,0.00,,,0.00,,2013-03-10 09:31:00,
2013-03-10 04:41:00,61.0,45.0,29.93,NE,54,1.0,4.0,56,0.00,,,0.00,,2013-03-10 09:41:00,
2013-03-10 04:52:00,61.0,45.0,29.93,NE,48,1.0,8.0,56,0.00,,,0.00,,2013-03-10 09:52:00,
2013-03-10 05:01:00,60.0,45.0,29.91,ENE,74,3.0,6.0,58,0.00,,,0.00,,2013-03-10 10:01:00,
2013-03-10 05:11:00,60.0,45.0,29.91,ENE,74,3.0,6.0,58,0.00,,,0.00,,2013-03-10 10:11:00,
2013-03-10 05:21:00,60.0,46.0,29.91,ENE,62,1.0,7.0,60,0.00,,,0.00,,2013-03-10 10:21:00,
2013-03-10 05:32:00,60.0,47.0,29.91,NE,49,2.0,5.0,62,0.00,,,0.00,,2013-03-10 10:32:00,
2013-03-10 05:41:00,60.0,48.0,29.90,East,90,2.0,6.0,65,0.00,,,0.00,,2013-03-10 10:41:00,
2013-03-10 05:52:00,60.0,48.0,29.90,East,90,2.0,6.0,65,0.00,,,0.00,,2013-03-10 10:52:00,
2013-03-10 06:01:00,60.0,49.0,29.91,WSW,246,1.0,7.0,67,0.00,,,0.00,,2013-03-10 11:01:00,
2013-03-10 06:12:00,60.0,49.0,29.91,WSW,246,1.0,7.0,67,0.00,,,0.00,,2013-03-10 11:12:00,
2013-03-10 06:21:00,60.0,49.0,29.91,ENE,68,1.0,5.0,68,0.00,,,0.00,,2013-03-10 11:21:00,
2013-03-10 06:31:00,60.0,49.0,29.93,East,91,1.0,7.0,68,0.00,,,0.00,,2013-03-10 11:31:00,
2013-03-10 06:42:00,60.0,49.0,29.93,East,91,1.0,7.0,68,0.00,,,0.00,,2013-03-10 11:42:00,
2013-03-10 06:52:00,60.0,49.0,29.93,ENE,57,1.0,9.0,68,0.00,,,0.00,,2013-03-10 11:52:00,
2013-03-10 07:01:00,59.0,49.0,29.93,NW,319,1.0,6.0,69,0.00,,,0.00,,2013-03-10 12:01:00,
2013-03-10 07:11:00,59.0,49.0,29.93,NW,319,1.0,6.0,69,0.00,,,0.00,,2013-03-10 12:11:00,
2013-03-10 07:21:00,59.0,49.0,29.92,WNW,295,1.0,5.0,69,0.00,,,0.00,,2013-03-10 12:21:00,
2013-03-10 07:31:00,59.0,48.0,29.90,ENE,63,2.0,6.0,68,0.00,,,0.00,,2013-03-10 12:31:00,
2013-03-10 07:42:00,59.0,48.0,29.90,ENE,63,2.0,6.0,68,0.00,,,0.00,,2013-03-10 12:42:00,
2013-03-10 07:52:00,58.0,47.0,29.89,East,88,3.0,8.0,68,0.00,,,0.00,,2013-03-10 12:52:00,
2013-03-10 08:01:00,58.0,47.0,29.88,East,79,2.0,5.0,68,0.00,,,0.00,,2013-03-10 13:01:00,
2013-03-10 08:11:00,58.0,47.0,29.88,East,79,2.0,5.0,68,0.00,,,0.00,,2013-03-10 13:11:00,
2013-03-10 08:21:00,58.0,47.0,29.89,ESE,108,2.0,8.0,68,0.00,,,0.00,,2013-03-10 13:21:00,
2013-03-10 08:31:00,59.0,48.0,29.88,ESE,115,1.0,7.0,68,0.00,,,0.00,,2013-03-10 13:31:00,
2013-03-10 08:41:00,59.0,48.0,29.88,ESE,115,1.0,7.0,68,0.00,,,0.00,,2013-03-10 13:41:00,
2013-03-10 08:52:00,59.0,49.0,29.90,ENE,60,1.0,6.0,69,0.00,,,0.00,,2013-03-10 13:52:00,
2013-03-10 09:01:00,60.0,49.0,29.90,ESE,103,2.0,11.0,68,0.00,,,0.00,,2013-03-10 14:01:00,
2013-03-10 09:11:00,60.0,49.0,29.90,ESE,103,2.0,11.0,68,0.00,,,0.00,,2013-03-10 14:11:00,
2013-03-10 09:21:00,60.0,49.0,29.89,NE,41,3.0,6.0,68,0.00,,,0.00,,2013-03-10 14:21:00,
2013-03-10 09:32:00,61.0,50.0,29.89,SSW,200,3.0,7.0,68,0.00,,,0.00,,2013-03-10 14:32:00,
2013-03-10 09:41:00,61.0,50.0,29.89,SSW,200,3.0,7.0,68,0.00,,,0.00,,2013-03-10 14:41:00,
2013-03-10 09:52:00,61.0,51.0,29.90,SSW,198,3.0,12.0,69,0.00,,,0.00,,2013-03-10 14:52:00,
2013-03-10 10:01:00,61.0,51.0,29.90,ESE,122,3.0,8.0,69,0.00,,,0.00,,2013-03-10 15:01:00,
2013-03-10 10:11:00,61.0,51.0,29.90,ESE,122,3.0,8.0,69,0.00,,,0.00,,2013-03-10 15:11:00,
2013-03-10 10:21:00,61.0,51.0,29.90,SSE,156,2.0,9.0,70,0.00,,,0.00,,2013-03-10 15:21:00,
2013-03-10 10:32:00,62.0,52.0,29.89,SE,124,2.0,7.0,70,0.00,,,0.00,,2013-03-10 15:32:00,
2013-03-10 10:42:00,62.0,52.0,29.89,SE,124,2.0,7.0,70,0.00,,,0.00,,2013-03-10 15:42:00,
2013-03-10 10:52:00,63.0,53.0,29.87,East,89,2.0,8.0,69,0.00,,,0.00,,2013-03-10 15:52:00,
2013-03-10 11:01:00,63.0,53.0,29.87,East,79,3.0,11.0,69,0.00,,,0.00,,2013-03-10 16:01:00,
2013-03-10 11:12:00,63.0,53.0,29.87,East,79,3.0,11.0,69,0.00,,,0.00,,2013-03-10 16:12:00,
2013-03-10 11:21:00,63.0,52.0,29.87,SSE,166,3.0,7.0,68,0.00,,,0.00,,2013-03-10 16:21:00,
2013-03-10 11:31:00,64.0,53.0,29.86,ENE,69,2.0,9.0,67,0.00,,,0.00,,2013-03-10 16:31:00,
2013-03-10 11:41:00,64.0,53.0,29.86,ENE,69,2.0,9.0,67,0.00,,,0.00,,2013-03-10 16:41:00,
2013-03-10 11:52:00,65.0,54.0,29.85,NW,316,3.0,11.0,67,0.00,,,0.00,,2013-03-10 16:52:00,
2013-03-10 12:01:00,65.0,54.0,29.85,NE,37,6.0,13.0,67,0.00,,,0.00,,2013-03-10 17:01:00,
2013-03-10 12:11:00,65.0,54.0,29.85,NE,37,6.0,13.0,67,0.00,,,0.00,,2013-03-10 17:11:00,
2013-03-10 12:21:00,65.0,54.0,29.86,WSW,252,3.0,13.0,68,0.00,,,0.00,,2013-03-10 17:21:00,
2013-03-10 12:31:00,65.0,54.0,29.85,SSE,153,4.0,16.0,68,0.00,,,0.00,,2013-03-10 17:31:00,
2013-03-10 12:41:00,65.0,54.0,29.85,SSE,153,4.0,16.0,68,0.00,,,0.00,,2013-03-10 17:41:00,
2013-03-10 12:51:00,65.0,54.0,29.85,ENE,65,2.0,10.0,68,0.00,,,0.00,,2013-03-10 17:51:00,
2013-03-10 13:01:00,65.0,55.0,29.85,ESE,117,2.0,13.0,69,0.00,,,0.00,,2013-03-10 18:01:00,
2013-03-10 13:11:00,65.0,55.0,29.85,ESE,117,2.0,13.0,69,0.00,,,0.00,,2013-03-10 18:11:00,
2013-03-10 13:21:00,65.0,55.0,29.83,NE,47,3.0,9.0,70,0.00,,,0.00,,2013-03-10 18:21:00,
2013-03-10 13:32:00,64.0,56.0,29.83,SE,146,4.0,8.0,74,0.00,,,0.00,,2013-03-10 18:32:00,
2013-03-10 13:42:00,64.0,56.0,29.83,SE,146,4.0,8.0,74,0.00,,,0.00,,2013-03-10 18:42:00,
2013-03-10 13:52:00,63.0,56.0,29.83,ENE,70,2.0,9.0,78,0.00,,,0.00,,2013-03-10 18:52:00,
2013-03-10 14:01:00,63.0,56.0,29.82,ENE,72,4.0,11.0,78,0.01,,,0.01,,2013-03-10 19:01:00,
2013-03-10 14:11:00,63.0,56.0,29.82,ENE,72,4.0,11.0,78,0.01,,,0.01,,2013-03-10 19:11:00,
2013-03-10 14:21:00,63.0,56.0,29.80,West,266,3.0,8.0,77,0.01,,,0.01,,2013-03-10 19:21:00,
2013-03-10 14:32:00,64.0,56.0,29.80,WSW,249,2.0,9.0,76,0.01,,,0.01,,2013-03-10 19:32:00,
2013-03-10 14:42:00,64.0,56.0,29.80,WSW,249,2.0,9.0,76,0.01,,,0.01,,2013-03-10 19:42:00,
2013-03-10 14:53:00,64.0,57.0,29.79,SW,226,3.0,7.0,78,0.01,,,0.01,,2013-03-10 19:53:00,
2013-03-10 15:02:00,64.0,57.0,29.78,NE,49,2.0,10.0,78,0.00,,,0.01,,2013-03-10 20:02:00,
2013-03-10 15:12:00,64.0,57.0,29.78,NE,49,2.0,10.0,78,0.00,,,0.01,,2013-03-10 20:12:00,
2013-03-10 15:22:00,63.0,56.0,29.78,East,97,4.0,11.0,79,0.00,,,0.01,,2013-03-10 20:22:00,
2013-03-10 15:32:00,64.0,57.0,29.80,SW,231,3.0,7.0,79,0.00,,,0.01,,2013-03-10 20:32:00,
2013-03-10 15:42:00,64.0,57.0,29.80,SW,231,3.0,7.0,79,0.00,,,0.01,,2013-03-10 20:42:00,
2013-03-10 15:53:00,56.0,51.0,29.80,SSW,213,3.0,7.0,84,0.14,,,0.15,,2013-03-10 20:53:00,
2013-03-10 16:02:00,53.0,50.0,29.81,SSW,193,0.0,5.0,90,0.22,,,0.23,,2013-03-10 21:02:00,
2013-03-10 16:12:00,53.0,50.0,29.81,SSW,193,0.0,5.0,90,0.22,,,0.23,,2013-03-10 21:12:00,
2013-03-10 16:23:00,53.0,50.0,29.86,SSW,198,2.0,8.0,91,0.26,,,0.27,,2013-03-10 21:23:00,
2013-03-10 16:32:00,53.0,51.0,29.85,SSW,210,1.0,2.0,92,0.34,,,0.35,,2013-03-10 21:32:00,
2013-03-10 16:42:00,53.0,51.0,29.85,SSW,210,1.0,2.0,92,0.34,,,0.35,,2013-03-10 21:42:00,
2013-03-10 16:53:00,52.0,50.0,29.83,SSW,203,0.0,1.0,93,0.27,,,0.42,,2013-03-10 21:53:00,
2013-03-10 17:02:00,52.0,50.0,29.84,SW,236,0.0,1.0,93,0.26,,,0.49,,2013-03-10 22:02:00,
2013-03-10 17:12:00,52.0,50.0,29.84,SW,236,0.0,1.0,93,0.26,,,0.49,,2013-03-10 22:12:00,
2013-03-10 17:22:00,52.0,50.0,29.88,WSW,238,1.0,3.0,94,0.27,,,0.54,,2013-03-10 22:22:00,
2013-03-10 17:32:00,52.0,50.0,29.80,ENE,76,2.0,3.0,94,0.28,,,0.63,,2013-03-10 22:32:00,
2013-03-10 17:42:00,52.0,50.0,29.80,ENE,76,2.0,3.0,94,0.28,,,0.63,,2013-03-10 22:42:00,
2013-03-10 17:53:00,52.0,50.0,29.83,East,83,0.0,1.0,94,0.23,,,0.65,,2013-03-10 22:53:00,
2013-03-10 18:03:00,52.0,51.0,29.83,ENE,69,0.0,2.0,95,0.20,,,0.69,,2013-03-10 23:03:00,
2013-03-10 18:12:00,52.0,51.0,29.83,ENE,69,0.0,2.0,95,0.20,,,0.69,,2013-03-10 23:12:00,
2013-03-10 18:23:00,52.0,51.0,29.82,ESE,106,0.0,4.0,95,0.18,,,0.73,,2013-03-10 23:23:00,
2013-03-10 18:32:00,52.0,51.0,29.82,ENE,61,1.0,3.0,95,0.17,,,0.80,,2013-03-10 23:32:00,
2013-03-10 18:42:00,52.0,51.0,29.82,ENE,61,1.0,3.0,95,0.17,,,0.80,,2013-03-10 23:42:00,
2013-03-10 18:52:00,52.0,51.0,29.84,WSW,240,0.0,2.0,95,0.15,,,0.81,,2013-03-10 23:52:00,
2013-03-10 19:02:00,52.0,51.0,29.83,SW,232,0.0,1.0,95,0.13,,,0.82,,2013-03-11 00:02:00,
2013-03-10 19:12:00,52.0,51.0,29.83,SW,232,0.0,1.0,95,0.13,,,0.82,,2013-03-11 00:12:00,
2013-03-10 19:23:00,52.0,51.0,29.84,SW,231,0.0,1.0,95,0.12,,,0.85,,2013-03-11 00:23:00,
2013-03-10 19:33:00,52.0,51.0,29.83,ENE,73,0.0,1.0,95,0.07,,,0.87,,2013-03-11 00:33:00,
2013-03-10 19:43:00,52.0,51.0,29.83,ENE,73,0.0,1.0,95,0.07,,,0.87,,2013-03-11 00:43:00,
2013-03-10 19:53:00,52.0,51.0,29.84,WSW,249,0.0,1.0,95,0.07,,,0.88,,2013-03-11 00:53:00,
2013-03-10 20:02:00,52.0,51.0,29.83,SE,125,0.0,1.0,96,0.07,,,0.89,,2013-03-11 01:02:00,
2013-03-10 20:13:00,52.0,51.0,29.83,SE,125,0.0,1.0,96,0.07,,,0.89,,2013-03-11 01:13:00,
2013-03-10 20:23:00,52.0,51.0,29.85,SW,225,0.0,2.0,96,0.05,,,0.90,,2013-03-11 01:23:00,
2013-03-10 20:32:00,52.0,51.0,29.86,SW,221,0.0,1.0,96,0.03,,,0.91,,2013-03-11 01:32:00,
2013-03-10 20:42:00,52.0,51.0,29.86,SW,221,0.0,1.0,96,0.03,,,0.91,,2013-03-11 01:42:00,
2013-03-10 20:53:00,52.0,51.0,29.85,SW,232,0.0,2.0,96,0.06,,,0.94,,2013-03-11 01:53:00,
2013-03-10 21:02:00,52.0,51.0,29.84,SSW,200,0.0,1.0,96,0.07,,,0.96,,2013-03-11 02:02:00,
2013-03-10 21:12:00,52.0,51.0,29.84,SSW,200,0.0,1.0,96,0.07,,,0.96,,2013-03-11 02:12:00,
2013-03-10 21:22:00,52.0,51.0,29.85,SE,136,0.0,3.0,96,0.06,,,0.96,,2013-03-11 02:22:00,
2013-03-10 21:32:00,53.0,52.0,29.85,WSW,255,1.0,3.0,96,0.08,,,0.99,,2013-03-11 02:32:00,
2013-03-10 21:42:00,53.0,52.0,29.85,WSW,255,1.0,3.0,96,0.08,,,0.99,,2013-03-11 02:42:00,
2013-03-10 21:52:00,53.0,52.0,29.88,WSW,239,1.0,5.0,96,0.06,,,1.00,,2013-03-11 02:52:00,
2013-03-10 22:02:00,53.0,52.0,29.86,SW,226,0.0,3.0,96,0.04,,,1.00,,2013-03-11 03:02:00,
2013-03-10 22:12:00,53.0,52.0,29.86,SW,226,0.0,3.0,96,0.04,,,1.00,,2013-03-11 03:12:00,
2013-03-10 22:22:00,53.0,52.0,29.85,SSW,212,0.0,2.0,95,0.04,,,1.00,,2013-03-11 03:22:00,
2013-03-10 22:32:00,53.0,52.0,29.87,SE,139,1.0,5.0,95,0.02,,,1.01,,2013-03-11 03:32:00,
2013-03-10 22:42:00,53.0,52.0,29.87,SE,139,1.0,5.0,95,0.02,,,1.01,,2013-03-11 03:42:00,
2013-03-10 22:53:00,53.0,52.0,29.87,South,190,1.0,5.0,95,0.01,,,1.01,,2013-03-11 03:53:00,
2013-03-10 23:02:00,53.0,52.0,29.85,WSW,257,1.0,2.0,95,0.01,,,1.01,,2013-03-11 04:02:00,
2013-03-10 23:12:00,53.0,52.0,29.85,WSW,257,1.0,2.0,95,0.01,,,1.01,,2013-03-11 04:12:00,
2013-03-10 23:22:00,53.0,52.0,29.85,WSW,248,0.0,2.0,95,0.02,,,1.02,,2013-03-11 04:22:00,
2013-03-10 23:32:00,53.0,52.0,29.85,NW,325,0.0,2.0,95,0.01,,,1.02,,2013-03-11 04:32:00,
2013-03-10 23:42:00,53.0,52.0,29.85,NW,325,0.0,2.0,95,0.01,,,1.02,,2013-03-11 04:42:00,
2013-03-10 23:53:00,53.0,52.0,29.85,SW,233,0.0,1.0,95,0.01,,,1.02,,2013-03-11 04:53:00,